Find Starlink 2519

NORAD ID: 48305 Int'l Des: 2021-036 Owner: SPXS Country: US Constellation: starlink operational
LEOCIRCULARSTARLINK_TYPE

实时位置

正在加载3D地球...

关于 Starlink 2519

正在加载描述...

即将过境

Passes for default location (London). Set your location on the main map for personalized predictions.

高度历史

Loading altitude history...

两行轨道根数

1 48305U 21036AF 26106.91588625 .00101987 00000-0 66252-2 0 9990
2 48305 53.0564 280.5811 0001351 113.5265 246.5866 15.07186042273927
Epoch: Apr 16, 2026 • Age: 12 hours

当前状态

高度 544.0 km
速度 7.59 km/s
星下点 13.38°N, 94.94°E
发射日期 Apr 29, 2021
运行时间 4.9 years
类型 internet

技术详情

分类 Payload
质量 260.00 kg
干质量 248.00 kg
总质量 260.00 kg
长度 0.20 m
直径 2.80 m
跨度 9.00 m
形状 Box + pan
制造商 SPXS
平台类型 Starlink
阶段状态 In Orbit
所有者/国家 SPXS/US

Most Searched